CW4778 Auckland NZ current weather conditions

sailwx.info

Wind from 218 at 3 knots gusting 10

Air temperature 18.3° C
Dewpoint 14.8° C

Last reported at 2014-Oct-31 19:38 UTC.
Time now 2014-Oct-31 20:10 UTC

Location: S 36°52' E 174°44'.
View on Google Maps.

See reports from other nearby stations

  
Tides and Currents Weather Stations Pressure Air Temp Water Temp Dewpoint Dewpoint Depression Visibility Wind Speed Wind Dir Waves Ship Positions
date/time (UTC)wind fromknots sea level pressurealtimeterstation pressurevisibilityair tempwater tempwave heightnotes
2014-Oct-31 19:38 218 3 gusting 10 18.3
2014-Oct-31 19:28 263 0 gusting 7 17.2
2014-Oct-31 19:18 250 0 gusting 6 16.1
2014-Oct-31 19:08 211 1 gusting 6 16.1
2014-Oct-31 18:58 253 1 gusting 7 16.1
2014-Oct-31 18:48 243 1 gusting 5 15.6
2014-Oct-31 18:38 243 1 gusting 5 15.0
2014-Oct-31 18:28 247 15.0
2014-Oct-31 18:18 250 15.0
2014-Oct-31 18:08 247 14.4
2014-Oct-31 17:58 236 13.9
2014-Oct-31 17:48 237 13.9
2014-Oct-31 17:38 234 1 gusting 6 13.9
2014-Oct-31 17:28 245 0 gusting 6 13.9
2014-Oct-31 17:18 258 1 gusting 6 14.4
2014-Oct-31 17:08 241 0 gusting 4 14.4
2014-Oct-31 16:58 249 0 gusting 1 14.4
2014-Oct-31 16:48 216 0 gusting 4 14.4
2014-Oct-31 16:38 252 0 gusting 1 14.4
2014-Oct-31 16:28 257 14.4
2014-Oct-31 16:18 259 14.4
2014-Oct-31 16:08 260 0 gusting 1 14.4
2014-Oct-31 15:58 263 1 gusting 4 15.0
2014-Oct-31 15:48 268 15.0
2014-Oct-31 15:38 250 1 gusting 5 15.0
2014-Oct-31 15:28 271 15.0
2014-Oct-31 15:18 272 0 gusting 4 15.0
2014-Oct-31 15:08 265 2 gusting 5 15.0
2014-Oct-31 14:58 280 15.0
2014-Oct-31 14:48 323 15.0
2014-Oct-31 14:38 285 15.0
2014-Oct-31 14:28 273 0 gusting 1 15.0
2014-Oct-31 14:18 273 15.0
2014-Oct-31 14:08 270 0 gusting 6 15.0
2014-Oct-31 13:58 261 4 gusting 7 15.0
2014-Oct-31 13:48 285 1 gusting 7 15.0
2014-Oct-31 13:38 266 4 gusting 13 15.0
2014-Oct-31 13:28 244 2 gusting 6 15.0
2014-Oct-31 13:18 265 2 gusting 6 15.0
2014-Oct-31 13:08 273 2 gusting 6 15.0
2014-Oct-31 12:58 252 2 gusting 8 15.0
2014-Oct-31 12:48 271 4 gusting 7 15.0
2014-Oct-31 12:38 274 2 gusting 8 15.0
2014-Oct-31 12:28 272 1 gusting 8 15.0
2014-Oct-31 12:18 271 2 gusting 12 15.0
2014-Oct-31 12:08 263 0 gusting 7 15.0
2014-Oct-31 11:58 265 4 gusting 10 15.0
2014-Oct-31 11:48 280 4 gusting 7 15.0
2014-Oct-31 11:38 284 0 gusting 6 15.0
2014-Oct-31 11:28 289 2 gusting 7 14.4
2014-Oct-31 11:18 287 2 gusting 6 14.4
2014-Oct-31 11:08 221 0 gusting 8 14.4
2014-Oct-31 10:58 283 2 gusting 8 14.4
2014-Oct-31 10:48 244 2 gusting 6 14.4
2014-Oct-31 10:38 272 2 gusting 12 14.4
2014-Oct-31 10:28 248 5 gusting 10 14.4
2014-Oct-31 10:18 285 1 gusting 8 14.4
2014-Oct-31 10:08 253 2 gusting 8 14.4
2014-Oct-31 09:58 248 2 gusting 7 14.4
2014-Oct-31 09:48 263 2 gusting 7 14.4
2014-Oct-31 09:38 244 4 gusting 12 15.0
2014-Oct-31 09:28 243 1 gusting 10 15.0
2014-Oct-31 09:18 257 4 gusting 10 15.0
2014-Oct-31 09:08 257 3 gusting 11 15.0
2014-Oct-31 08:58 248 4 gusting 13 15.0
2014-Oct-31 08:48 252 3 gusting 13 15.0
2014-Oct-31 08:38 250 2 gusting 12 15.0
2014-Oct-31 08:28 265 6 gusting 12 15.0
2014-Oct-31 08:18 263 5 gusting 8 15.0
2014-Oct-31 08:08 254 6 gusting 12 15.0
2014-Oct-31 07:58 241 6 gusting 13 15.6
2014-Oct-31 07:48 264 9 gusting 15 15.6
2014-Oct-31 07:38 271 9 gusting 19 15.6
2014-Oct-31 07:28 263 5 gusting 18 15.6
2014-Oct-31 07:18 270 7 gusting 15 15.6
2014-Oct-31 07:08 251 4 gusting 13 15.6
2014-Oct-31 06:58 243 5 gusting 11 15.6
2014-Oct-31 06:48 260 6 gusting 12 15.6
2014-Oct-31 06:38 275 4 gusting 14 15.6
2014-Oct-31 06:28 260 7 gusting 14 16.1
2014-Oct-31 06:18 250 6 gusting 14 16.1
2014-Oct-31 06:08 269 6 gusting 14 16.1
2014-Oct-31 05:58 255 4 gusting 11 16.1
2014-Oct-31 05:48 271 11 gusting 19 16.1
2014-Oct-31 05:38 247 6 gusting 19 16.7
2014-Oct-31 05:28 265 6 gusting 13 16.7
2014-Oct-31 05:18 274 5 gusting 19 16.7
2014-Oct-31 05:08 244 6 gusting 18 16.7
2014-Oct-31 04:58 246 11 gusting 18 17.2
2014-Oct-31 04:48 270 6 gusting 19 17.2
2014-Oct-31 04:38 256 8 gusting 18 17.8
2014-Oct-31 04:28 284 6 gusting 15 17.8
2014-Oct-31 04:18 266 8 gusting 20 17.8
2014-Oct-31 04:08 275 7 gusting 15 18.3
2014-Oct-31 03:58 247 7 gusting 14 17.8
2014-Oct-31 03:48 254 8 gusting 18 18.3
2014-Oct-31 03:38 252 10 gusting 28 18.3
2014-Oct-31 03:28 259 5 gusting 19 18.9
2014-Oct-31 03:18 272 10 gusting 25 18.3
2014-Oct-31 03:08 280 11 gusting 25 18.9
2014-Oct-31 02:58 308 11 gusting 21 18.3
2014-Oct-31 02:48 275 8 gusting 24 18.3
2014-Oct-31 02:38 259 6 gusting 19 19.4
2014-Oct-31 02:28 252 7 gusting 19 19.4
2014-Oct-31 02:18 248 6 gusting 14 18.9
2014-Oct-31 02:08 300 12 gusting 19 18.9
2014-Oct-31 01:58 272 11 gusting 19 18.3
2014-Oct-31 01:48 280 6 gusting 20 19.4
2014-Oct-31 01:38 277 7 gusting 15 18.9
2014-Oct-31 01:28 274 11 gusting 19 17.8
2014-Oct-31 01:18 280 8 gusting 20 18.3
2014-Oct-31 01:08 276 11 gusting 19 17.8
2014-Oct-31 00:58 281 7 gusting 22 17.2
2014-Oct-31 00:48 279 11 gusting 19 16.7
2014-Oct-31 00:38 253 5 gusting 13 16.7
2014-Oct-31 00:28 204 5 gusting 15 16.7
2014-Oct-31 00:18 279 6 gusting 14 17.8
2014-Oct-31 00:09 270 9 gusting 18 17.8
2014-Oct-30 23:58 268 8 gusting 19 18.3
2014-Oct-30 23:48 296 10 gusting 15 17.8
2014-Oct-30 23:38 287 11 gusting 20 17.8
2014-Oct-30 23:28 277 9 gusting 20 17.2
2014-Oct-30 23:18 259 9 gusting 19 17.8
2014-Oct-30 23:08 267 8 gusting 18 17.2
2014-Oct-30 22:58 294 11 gusting 21 17.2
2014-Oct-30 22:48 289 10 gusting 19 17.2
2014-Oct-30 22:38 324 8 gusting 14 17.2
2014-Oct-30 22:28 244 6 gusting 19 17.8
2014-Oct-30 22:18 259 7 gusting 18 18.3
2014-Oct-30 22:08 283 5 gusting 13 18.9
2014-Oct-30 21:58 282 9 gusting 18 18.9
2014-Oct-30 21:48 279 6 gusting 20 17.8
2014-Oct-30 21:38 250 5 gusting 15 17.2
2014-Oct-30 21:28 284 6 gusting 15 16.1
2014-Oct-30 21:18 272 6 gusting 19 16.7
2014-Oct-30 21:08 262 4 gusting 13 17.8
2014-Oct-30 20:58 322 3 gusting 12 15.0
2014-Oct-30 20:48 271 4 gusting 19 14.4
2014-Oct-30 20:38 268 4 gusting 14 16.1
2014-Oct-30 20:28 266 8 gusting 19 16.1
2014-Oct-30 20:18 276 6 gusting 13 16.7
2014-Oct-30 20:08 272 6 gusting 13 16.7
2014-Oct-30 19:58 300 2 gusting 18 16.1
2014-Oct-30 19:48 280 4 gusting 18 15.6
2014-Oct-30 19:38 235 2 gusting 11 15.0
2014-Oct-30 19:28 261 4 gusting 8 15.6
2014-Oct-30 19:18 275 5 gusting 8 14.4
2014-Oct-30 19:08 272 2 gusting 7 13.9
2014-Oct-30 18:58 322 3 gusting 8 13.9
2014-Oct-30 18:48 298 13.9
2014-Oct-30 18:38 271 13.3
2014-Oct-30 18:28 289 0 gusting 5 13.3
2014-Oct-30 18:18 260 13.3
2014-Oct-30 18:08 272 0 gusting 5 12.8
2014-Oct-30 17:58 294 1 gusting 6 12.8
2014-Oct-30 17:48 280 12.2
2014-Oct-30 17:38 265 12.2
2014-Oct-30 17:28 262 12.2
2014-Oct-30 17:18 260 1 gusting 8 12.2
2014-Oct-30 17:08 278 0 gusting 4 12.2
2014-Oct-30 16:58 296 1 gusting 6 12.8
2014-Oct-30 16:48 304 1 gusting 6 12.2
2014-Oct-30 16:38 289 2 gusting 6 12.8
2014-Oct-30 16:28 269 0 gusting 4 12.2
2014-Oct-30 16:18 264 1 gusting 6 12.2
2014-Oct-30 16:08 272 1 gusting 6 12.8
2014-Oct-30 15:58 270 1 gusting 7 12.8
2014-Oct-30 15:48 248 0 gusting 6 12.2
2014-Oct-30 15:38 279 0 gusting 4 12.2
2014-Oct-30 15:28 294 1 gusting 5 12.2
2014-Oct-30 15:18 283 0 gusting 4 12.2
2014-Oct-30 15:08 300 1 gusting 5 12.2
2014-Oct-30 14:58 271 11.7
2014-Oct-30 14:48 271 11.7
2014-Oct-30 14:38 283 11.1
2014-Oct-30 14:28 281 10.6
2014-Oct-30 14:18 269 10.6
2014-Oct-30 14:08 267 10.6
2014-Oct-30 13:58 268 10.6
2014-Oct-30 13:48 269 10.6
2014-Oct-30 13:38 268 11.1
2014-Oct-30 13:28 267 11.7
2014-Oct-30 13:18 273 0 gusting 5 11.7
2014-Oct-30 13:08 275 11.7
2014-Oct-30 12:58 281 11.7
2014-Oct-30 12:48 280 11.7
2014-Oct-30 12:38 358 11.7
2014-Oct-30 12:28 284 11.7
2014-Oct-30 12:18 276 11.1
2014-Oct-30 12:08 280 0 gusting 1 11.1
2014-Oct-30 11:58 300 11.1
2014-Oct-30 11:48 280 0 gusting 1 10.6
2014-Oct-30 11:38 277 11.1
2014-Oct-30 11:28 293 11.1
2014-Oct-30 11:18 283 0 gusting 5 11.1
2014-Oct-30 11:08 282 11.7
2014-Oct-30 10:58 283 11.1
2014-Oct-30 10:48 272 11.1
2014-Oct-30 10:38 270 10.6
2014-Oct-30 10:28 261 10.0
2014-Oct-30 10:18 258 10.0
2014-Oct-30 10:08 260 10.6
2014-Oct-30 09:58 259 10.6
2014-Oct-30 09:48 258 11.1
2014-Oct-30 09:38 273 11.1
2014-Oct-30 09:28 249 11.7
2014-Oct-30 09:18 249 1 gusting 7 11.7
2014-Oct-30 09:08 242 1 gusting 5 11.7
2014-Oct-30 08:58 279 11.7
2014-Oct-30 08:48 238 0 gusting 4 12.2
2014-Oct-30 08:38 219 0 gusting 6 12.2
2014-Oct-30 08:28 251 0 gusting 6 12.2
2014-Oct-30 08:18 261 0 gusting 5 12.2
2014-Oct-30 08:08 260 1 gusting 6 12.8
2014-Oct-30 07:58 266 1 gusting 6 12.8
2014-Oct-30 07:48 260 1 gusting 6 12.8
2014-Oct-30 07:38 269 2 gusting 6 12.8
2014-Oct-30 07:28 236 4 gusting 7 12.8
2014-Oct-30 07:18 267 2 gusting 8 12.8
2014-Oct-30 07:08 238 4 gusting 11 13.3
2014-Oct-30 06:58 240 0 gusting 6 13.3
2014-Oct-30 06:48 249 5 gusting 11 13.3
2014-Oct-30 06:38 259 5 gusting 13 13.9
2014-Oct-30 06:28 233 8 gusting 14 13.9
2014-Oct-30 06:18 309 3 gusting 11 13.9
2014-Oct-30 06:08 251 3 gusting 8 13.9
2014-Oct-30 05:58 235 5 gusting 11 13.9
2014-Oct-30 05:48 232 4 gusting 11 13.9
2014-Oct-30 05:38 238 5 gusting 21 13.9
2014-Oct-30 05:28 243 4 gusting 15 15.0
2014-Oct-30 05:18 262 9 gusting 14 15.0
2014-Oct-30 05:08 279 7 gusting 14 15.0
2014-Oct-30 04:58 263 6 gusting 20 15.0
2014-Oct-30 04:48 261 2 gusting 15 15.6
2014-Oct-30 04:38 228 7 gusting 14 16.1
2014-Oct-30 04:28 287 5 gusting 14 15.6
2014-Oct-30 04:18 256 7 gusting 21 15.6
2014-Oct-30 04:08 254 8 gusting 18 15.6
2014-Oct-30 03:58 209 8 gusting 20 16.1
2014-Oct-30 03:48 268 10 gusting 24 15.6
2014-Oct-30 03:38 312 9 gusting 24 16.1
2014-Oct-30 03:28 220 10 gusting 19 16.1
2014-Oct-30 03:18 258 7 gusting 19 16.1
2014-Oct-30 03:08 249 8 gusting 21 16.1
2014-Oct-30 02:58 231 6 gusting 20 16.7
2014-Oct-30 02:48 255 11 gusting 19 16.1
2014-Oct-30 02:38 246 8 gusting 14 16.1
2014-Oct-30 02:28 239 12 gusting 21 16.1
2014-Oct-30 02:18 258 7 gusting 24 16.7
2014-Oct-30 02:08 214 8 gusting 21 16.1
2014-Oct-30 01:58 283 5 gusting 18 16.7
2014-Oct-30 01:48 263 8 gusting 26 16.1
2014-Oct-30 01:38 262 12 gusting 20 16.7
2014-Oct-30 01:28 267 10 gusting 21 16.1
2014-Oct-30 01:18 259 8 gusting 21 15.6
2014-Oct-30 01:08 254 7 gusting 22 16.1
2014-Oct-30 00:58 258 8 gusting 19 16.1
2014-Oct-30 00:48 251 10 gusting 28 16.1
2014-Oct-30 00:38 263 15 gusting 25 16.1
2014-Oct-30 00:28 261 11 gusting 20 17.2
2014-Oct-30 00:18 238 9 gusting 22 16.7
2014-Oct-30 00:08 255 7 gusting 20 16.7
2014-Oct-29 23:58 245 13 gusting 22 16.1
2014-Oct-29 23:48 245 10 gusting 26 16.7
2014-Oct-29 23:38 262 9 gusting 20 17.2
2014-Oct-29 23:28 265 7 gusting 28 16.7
2014-Oct-29 23:18 264 13 gusting 27 17.2
2014-Oct-29 23:08 249 10 gusting 21 16.7
2014-Oct-29 22:58 266 11 gusting 28 17.8
2014-Oct-29 22:48 237 10 gusting 28 17.2
2014-Oct-29 22:38 239 11 gusting 26 16.7
2014-Oct-29 22:28 279 10 gusting 22 16.1
2014-Oct-29 22:18 242 10 gusting 21 17.2
2014-Oct-29 22:08 269 10 gusting 25 17.8
2014-Oct-29 21:58 257 13 gusting 28 15.0
2014-Oct-29 21:48 225 14 gusting 32 16.1
2014-Oct-29 21:38 259 10 gusting 19 16.7
2014-Oct-29 21:28 245 13 gusting 21 16.1
2014-Oct-29 21:18 244 8 gusting 24 14.4
2014-Oct-29 21:08 256 10 gusting 27 16.1
2014-Oct-29 20:58 264 14 gusting 26 15.6
2014-Oct-29 20:48 259 13 gusting 31 16.1
2014-Oct-29 20:38 254 11 gusting 21 16.1
2014-Oct-29 20:28 264 12 gusting 21 15.6
2014-Oct-29 20:18 251 11 gusting 21 16.1
2014-Oct-29 20:08 222 11 gusting 22 15.6